Wetbulb
52.26 53.06 53.51 53.67 53.68 54.23 54.49 54.15 54.45 55.11 55.96 56.64 56.95 56.94 57.25 57.20 55.56 48.72 47.05 51.84 55.69 60.60 62.02 56.81 53.11 51.84 52.02 49.44 50.03 49.43 46.85 43.17 42.70 42.32 43.64 49.15 47.72 50.01 51.25 47.96 49.09 51.12 50.25 50.95 52.27
51.99 52.28 52.94 52.99 53.33 53.84 54.11 54.21 54.47 55.54 56.28 56.60 56.50 56.68 56.42 56.58 49.40 46.49 56.30 59.86 59.99 62.11 51.96 53.13 50.70 51.61 48.37 48.27 48.70 46.70 42.15 39.40 44.69 47.78 45.01 45.79 48.06 47.91 47.02 46.45 45.53 46.87 50.44 51.43 51.09
51.62 51.67 52.22 52.83 52.98 53.46 53.72 54.09 54.30 55.47 56.07 56.31 56.32 56.66 55.99 54.86 46.28 46.07 58.50 58.59 59.78 59.64 51.42 50.26 51.15 50.52 47.11 47.69 45.76 45.49 41.96 44.96 45.62 46.98 48.18 46.47 45.79 47.60 45.50 42.58 45.43 44.72 46.87 48.85 48.70
50.99 50.77 51.53 52.41 52.62 53.11 53.80 53.76 54.24 54.71 55.63 56.01 56.40 56.81 56.17 47.70 40.74 47.79 58.33 58.40 59.32 54.39 51.81 51.86 50.88 47.35 44.30 44.61 46.63 42.17 44.81 45.62 45.98 46.50 46.40 44.51 46.35 44.08 45.31 45.36 47.76 47.90 47.98 47.16 46.63
50.63 50.22 50.98 51.77 52.13 52.67 53.43 53.72 53.93 54.12 55.03 55.97 56.70 56.75 49.85 44.21 43.68 49.21 56.07 54.25 50.04 52.71 51.96 50.72 47.91 46.23 43.71 44.97 45.51 43.22 43.70 44.78 45.64 45.27 45.27 45.56 43.23 42.83 43.62 46.62 47.84 47.70 47.46 46.83 47.06
51.04 50.31 50.98 51.43 51.71 52.41 53.13 53.33 53.41 53.71 54.15 55.84 56.71 54.67 46.53 40.40 48.09 47.96 46.90 48.75 48.30 50.85 49.61 50.64 48.48 48.56 44.31 42.88 42.90 44.76 44.02 44.04 44.94 44.26 44.53 42.50 41.87 43.88 44.00 46.76 46.09 46.16 46.16 47.09 46.88
51.25 50.76 50.95 50.98 51.41 52.71 52.97 52.99 52.89 53.22 54.00 55.79 56.45 46.63 45.42 44.23 47.16 47.84 48.22 47.74 47.56 51.19 49.30 49.05 49.61 47.87 46.55 42.74 45.89 44.61 40.54 42.28 42.17 43.22 42.24 44.11 40.29 40.07 44.73 45.78 44.69 45.14 46.02 46.72 47.25
51.27 51.03 50.59 50.63 51.18 52.14 52.36 52.41 52.60 53.43 54.50 55.70 54.68 47.62 43.56 48.36 49.78 48.47 49.44 49.19 49.93 50.41 48.84 49.68 49.97 46.23 45.14 46.47 44.07 40.41 40.15 37.50 41.70 41.30 40.89 42.54 34.75 41.17 44.43 44.25 43.70 44.65 45.62 46.35 46.95
51.75 51.16 50.82 50.21 50.97 51.72 51.89 52.04 52.61 54.17 54.83 54.69 51.54 47.26 43.29 52.12 47.34 47.85 48.62 47.31 48.68 49.34 49.04 48.40 49.64 46.12 45.99 41.67 37.68 36.90 35.11 36.57 37.34 40.82 40.99 41.31 37.19 42.10 44.25 43.27 43.27 44.29 45.09 45.87 46.62
51.79 51.24 51.05 50.51 51.03 51.62 51.41 52.06 52.75 51.98 49.46 48.09 47.18 46.13 46.71 44.02 46.06 47.04 48.55 47.94 46.51 47.40 47.13 45.97 44.10 41.99 40.54 39.69 36.19 34.48 35.32 35.81 36.09 38.91 40.41 38.55 38.36 42.00 43.02 42.89 43.28 43.86 44.29 45.12 45.91
51.62 51.43 51.18 50.95 51.39 51.07 50.60 48.91 45.79 45.14 45.50 43.69 43.06 42.88 44.26 47.21 48.60 46.14 46.78 48.48 46.74 44.32 40.80 41.32 41.37 37.57 36.28 37.40 36.98 36.76 37.29 35.67 36.98 39.30 38.94 36.96 38.47 40.36 41.76 42.08 41.39 42.76 43.36 44.06 45.33
51.77 51.14 50.86 51.05 51.18 50.87 51.04 46.73 47.09 46.75 40.71 43.69 44.29 44.38 46.31 47.34 44.66 45.59 47.70 44.47 43.46 39.03 40.00 40.46 35.63 37.01 37.86 38.19 38.55 38.51 36.92 35.04 37.32 39.35 39.15 36.87 37.57 39.78 40.65 41.70 42.04 42.96 43.22 44.12 44.41
51.53 50.95 50.48 50.63 50.59 49.69 49.69 49.06 51.88 48.44 40.47 42.39 43.79 43.10 43.93 46.07 41.93 42.70 44.82 41.91 39.34 37.13 37.55 37.82 36.06 38.12 37.34 37.77 37.58 35.11 36.74 35.19 36.36 38.45 38.95 37.95 35.65 37.16 40.55 41.19 41.98 42.45 43.60 43.60 43.95
51.18 50.67 49.58 50.17 47.31 48.57 48.13 51.27 51.10 50.45 35.78 37.90 40.65 42.63 44.24 44.74 41.46 44.10 44.71 42.75 39.80 35.76 35.68 35.43 37.11 36.99 36.68 34.88 36.58 34.55 36.50 37.04 37.10 36.59 34.07 37.52 33.28 35.63 39.02 39.24 40.26 42.13 42.35 42.85 43.08
50.66 50.57 49.73 50.12 46.49 47.73 49.93 51.30 52.89 48.73 28.86 39.59 39.94 45.54 43.20 41.84 42.29 42.65 44.38 42.28 36.96 35.01 38.41 33.22 34.69 35.34 35.19 33.80 36.34 34.51 38.12 38.10 36.33 35.10 35.21 34.45 33.48 36.75 37.37 36.98 39.41 41.62 42.30 42.43 43.12
50.40 50.06 50.19 48.15 48.67 49.66 50.73 49.78 48.38 35.13 25.42 36.10 39.28 39.59 39.40 40.06 40.58 41.93 42.01 43.19 40.19 36.98 36.92 34.69 37.65 36.77 36.30 36.89 37.33 39.15 38.30 37.25 35.78 34.95 30.84 32.56 34.14 36.58 35.90 38.58 40.72 41.88 42.14 42.21 42.66
50.07 50.02 48.92 50.21 47.29 52.40 48.91 45.70 34.39 29.43 37.98 34.06 35.52 38.51 37.50 36.87 38.39 39.10 38.17 37.49 35.73 32.87 32.37 33.48 34.02 36.51 37.76 37.29 39.78 38.41 35.74 30.90 30.38 29.67 29.21 32.51 32.46 37.05 38.83 39.68 41.93 41.31 41.79 42.05 43.18
49.42 49.38 48.32 51.05 52.43 50.67 46.88 39.31 28.89 32.31 34.55 37.79 37.00 37.18 35.32 37.36 36.96 37.98 36.90 35.43 36.83 34.28 30.88 31.29 29.26 33.78 36.18 35.98 36.46 36.20 35.93 33.41 28.00 27.75 30.93 32.86 30.83 37.32 38.98 39.48 40.97 42.75 43.24 42.68 42.67
49.16 47.29 49.59 51.53 52.50 48.07 42.43 32.37 31.60 33.83 38.81 35.74 36.72 34.13 33.46 36.53 37.22 36.98 35.56 35.60 37.21 35.69 34.44 30.60 28.85 34.65 35.81 37.28 37.65 35.50 35.36 36.06 31.14 29.23 29.13 33.09 34.75 38.40 37.88 37.68 38.33 39.70 40.95 41.72 42.89
45.38 47.30 47.94 51.23 51.44 46.32 37.67 34.24 36.53 39.58 39.02 38.05 33.34 35.32 31.46 34.33 34.72 35.35 34.67 37.63 36.01 38.72 37.75 33.76 28.47 33.05 34.35 37.21 38.30 36.78 36.64 32.09 30.37 26.46 25.37 29.45 30.12 34.69 35.28 36.86 37.35 38.40 40.40 42.18 43.17
43.91 42.26 48.48 50.48 49.09 41.15 32.71 32.83 37.64 43.01 40.55 37.92 35.63 34.43 34.04 33.90 34.91 33.87 34.35 36.41 38.44 37.26 36.99 34.08 33.39 30.05 33.37 32.48 33.54 34.26 33.54 30.71 32.19 30.08 29.10 27.25 32.23 36.69 36.11 37.95 38.31 39.49 41.35 42.73 43.40
42.03 37.43 48.05 47.59 37.04 34.60 34.43 36.96 41.46 41.71 43.92 40.01 40.17 38.20 35.69 35.63 34.64 34.25 33.58 36.52 39.59 39.27 35.22 34.68 32.39 27.77 29.67 33.63 35.29 34.28 33.88 33.47 33.73 27.56 28.87 29.00 31.77 36.81 37.10 37.86 39.30 39.88 40.56 41.48 41.88
41.89 42.27 48.64 46.01 32.90 34.14 37.61 39.27 41.93 39.52 39.76 39.03 39.10 40.54 39.74 36.45 33.81 34.70 35.11 37.64 38.75 38.81 36.05 35.36 31.47 26.47 28.21 31.44 33.06 31.52 31.31 26.67 28.73 30.74 28.29 29.38 32.01 36.91 36.65 36.90 38.51 39.84 39.49 39.40 40.39
40.86 32.82 40.03 41.60 39.63 37.62 36.72 37.04 37.95 41.60 40.12 40.96 38.71 40.30 37.74 35.47 36.20 32.69 33.30 36.33 38.59 39.36 40.84 39.22 30.85 30.65 30.65 31.27 30.09 26.04 27.40 24.63 28.70 29.83 29.18 30.49 31.13 34.17 34.54 35.00 36.71 37.88 38.97 39.69 39.80
41.68 35.51 40.46 33.47 35.48 37.43 38.73 37.88 36.11 36.06 40.62 41.69 38.77 38.62 36.73 32.24 33.20 31.92 33.56 34.60 36.47 40.66 36.62 37.45 30.42 28.98 29.12 31.43 29.85 29.75 28.78 27.81 25.04 29.94 32.22 30.97 31.04 34.19 35.77 35.35 36.81 38.21 38.26 37.89 37.83
35.51 37.39 37.98 39.27 39.44 37.89 37.96 36.16 36.16 37.45 38.25 37.73 37.73 37.88 38.06 33.92 36.37 32.02 33.88 34.15 35.17 35.52 35.34 33.99 29.68 31.16 27.42 31.28 30.99 30.38 30.62 30.50 30.00 30.55 29.61 29.07 30.13 35.54 35.85 37.19 36.80 36.81 36.81 36.33 36.91
42.35 42.48 41.03 38.89 38.62 35.85 35.37 36.87 36.95 39.21 40.30 40.52 39.87 37.77 37.11 38.48 37.92 37.88 37.57 37.50 37.52 34.94 32.32 32.44 30.16 29.03 25.67 28.66 29.10 27.54 30.46 31.20 31.28 32.47 33.34 29.33 34.98 34.79 34.08 35.10 35.48 35.83 36.30 36.43 36.84
MSLP
1022.33 1022.20 1021.83 1021.60 1021.55 1021.32 1021.20 1020.68 1020.14 1020.12 1019.79 1019.09 1018.41 1017.78 1017.58 1017.19 1016.48 1015.94 1015.82 1017.05 1016.46 1015.63 1015.19 1015.14 1014.20 1013.93 1013.96 1015.41 1016.64 1017.72 1019.78 1022.87 1024.47 1025.40 1027.02 1027.47 1027.50 1028.70 1029.81 1029.82 1029.88 1030.83 1031.24 1031.80 1031.52
1022.41 1022.21 1021.98 1021.57 1021.56 1021.26 1021.26 1020.90 1020.28 1019.85 1019.79 1019.13 1018.41 1017.88 1017.59 1017.36 1016.91 1016.45 1016.17 1015.89 1015.50 1015.51 1015.08 1014.87 1015.29 1014.91 1016.07 1017.40 1018.24 1018.91 1021.71 1024.25 1025.19 1026.04 1026.94 1027.67 1027.61 1028.66 1029.69 1030.08 1031.11 1031.47 1031.76 1031.81 1031.76
1022.40 1022.35 1022.09 1021.67 1021.51 1021.17 1021.19 1020.91 1020.38 1020.01 1019.61 1019.15 1018.11 1017.79 1017.53 1017.49 1017.25 1016.75 1015.98 1015.55 1015.46 1015.33 1015.35 1015.51 1015.95 1016.33 1017.59 1018.83 1020.35 1021.51 1023.02 1025.30 1026.33 1026.75 1027.15 1027.73 1028.56 1029.43 1029.50 1030.64 1031.26 1031.69 1031.99 1032.06 1031.91
1022.43 1022.33 1022.15 1021.83 1021.58 1021.12 1021.02 1020.86 1020.28 1019.96 1019.54 1019.19 1018.03 1017.67 1017.26 1017.48 1018.36 1017.21 1016.57 1015.95 1015.38 1015.30 1015.41 1015.98 1016.44 1018.03 1019.71 1020.98 1022.32 1022.29 1025.36 1026.00 1027.32 1027.87 1027.91 1028.33 1029.19 1029.80 1030.31 1031.37 1031.73 1031.91 1032.18 1032.29 1032.30
1022.43 1022.35 1022.08 1021.88 1021.65 1021.28 1020.63 1020.82 1020.26 1019.63 1019.42 1019.24 1018.00 1017.47 1017.28 1018.39 1018.96 1017.65 1017.00 1016.14 1015.61 1015.56 1016.06 1016.60 1017.60 1019.50 1020.67 1022.78 1023.64 1024.05 1026.26 1027.29 1028.06 1028.61 1029.00 1029.28 1029.91 1030.48 1031.60 1032.15 1032.22 1032.31 1032.50 1032.55 1032.53
1022.64 1022.26 1022.07 1021.78 1021.58 1021.33 1020.35 1020.65 1020.23 1019.64 1019.35 1019.39 1017.97 1017.57 1017.81 1018.89 1018.83 1018.33 1017.44 1016.43 1016.52 1016.51 1016.87 1017.01 1018.70 1020.06 1021.75 1023.60 1024.38 1026.01 1026.80 1028.07 1028.94 1029.24 1029.80 1029.49 1030.67 1030.83 1032.65 1032.78 1032.68 1032.79 1032.91 1033.00 1032.90
1022.73 1022.33 1021.99 1021.65 1021.43 1021.24 1020.33 1020.45 1020.15 1019.64 1019.36 1019.40 1018.14 1017.88 1018.79 1019.52 1018.99 1018.54 1017.83 1017.22 1017.61 1017.46 1017.95 1019.02 1019.04 1019.19 1022.45 1024.77 1026.64 1026.90 1026.73 1028.35 1028.99 1029.39 1029.77 1029.90 1031.12 1032.01 1032.65 1032.89 1032.81 1032.97 1033.08 1033.24 1033.39
1022.63 1022.27 1022.10 1021.52 1021.35 1021.16 1020.51 1020.17 1019.91 1019.46 1019.35 1019.18 1018.23 1018.26 1019.50 1019.09 1018.97 1018.56 1018.34 1017.90 1018.17 1018.62 1019.03 1019.97 1020.23 1020.48 1022.79 1025.04 1026.39 1026.86 1027.35 1028.17 1029.32 1029.43 1030.03 1030.10 1031.76 1032.41 1032.75 1032.72 1032.50 1032.86 1033.14 1033.28 1033.57
1022.50 1022.11 1022.09 1021.69 1021.28 1021.11 1020.56 1019.73 1019.69 1019.37 1019.35 1019.01 1018.55 1018.69 1020.01 1019.30 1019.32 1019.60 1019.38 1019.17 1018.93 1019.32 1019.84 1020.36 1020.91 1022.16 1024.10 1024.36 1026.12 1027.06 1027.68 1028.43 1029.21 1029.55 1029.84 1030.03 1031.47 1032.19 1032.59 1032.83 1032.69 1032.88 1033.09 1033.27 1033.37
1022.12 1022.07 1021.96 1021.85 1021.29 1020.89 1020.35 1019.55 1019.52 1019.26 1019.31 1018.99 1019.10 1019.51 1020.48 1020.80 1020.48 1020.33 1020.05 1019.71 1019.64 1019.90 1020.24 1021.25 1022.68 1024.02 1025.24 1025.07 1025.48 1026.54 1027.69 1028.62 1029.15 1029.99 1030.01 1030.24 1030.98 1031.85 1032.63 1032.90 1032.88 1033.00 1033.12 1033.24 1033.43
1021.78 1022.06 1021.81 1021.92 1021.37 1020.80 1020.13 1019.46 1020.25 1020.35 1020.64 1020.82 1020.73 1020.97 1021.08 1020.89 1020.76 1020.76 1020.73 1020.47 1020.66 1021.41 1022.46 1023.26 1023.65 1025.35 1026.13 1026.14 1026.07 1026.49 1027.40 1028.65 1029.68 1030.03 1030.14 1030.81 1031.17 1031.68 1032.36 1032.76 1032.96 1032.91 1032.94 1033.17 1033.39
1021.77 1021.76 1021.68 1021.76 1021.44 1020.97 1020.53 1020.76 1021.52 1021.77 1022.02 1021.55 1021.02 1021.04 1021.22 1021.15 1021.18 1021.23 1020.80 1021.67 1022.14 1023.23 1023.68 1024.47 1025.86 1026.93 1026.92 1026.70 1026.61 1027.09 1027.89 1029.11 1029.95 1030.21 1030.32 1031.09 1031.24 1031.79 1032.18 1032.32 1032.54 1032.58 1032.65 1032.87 1033.23
1021.81 1021.64 1021.47 1021.66 1021.63 1020.93 1021.03 1021.34 1021.27 1021.54 1021.93 1022.05 1021.49 1021.27 1021.60 1021.44 1022.50 1022.48 1022.19 1023.14 1023.68 1024.25 1024.96 1025.52 1027.16 1027.12 1027.17 1027.46 1027.41 1028.33 1028.39 1029.21 1029.62 1030.27 1030.68 1031.08 1031.44 1031.56 1031.83 1032.29 1032.49 1032.68 1032.81 1033.09 1033.29
1021.54 1021.62 1021.46 1021.79 1022.13 1021.27 1021.30 1021.38 1021.02 1021.18 1022.07 1022.63 1021.85 1021.64 1021.74 1021.89 1023.10 1023.13 1023.12 1023.56 1024.75 1025.89 1026.28 1027.43 1027.78 1027.56 1027.80 1028.15 1028.43 1028.73 1029.19 1029.18 1029.51 1029.88 1030.51 1031.02 1030.27 1030.33 1030.84 1031.41 1031.78 1032.11 1032.51 1032.79 1033.20
1021.14 1021.86 1021.92 1021.89 1021.23 1021.47 1021.70 1021.30 1021.11 1021.37 1022.46 1022.90 1022.09 1021.74 1022.11 1022.59 1023.43 1023.51 1023.60 1023.78 1025.60 1026.45 1026.97 1028.67 1028.56 1028.35 1028.58 1029.06 1028.73 1029.27 1029.37 1029.57 1029.92 1029.83 1030.25 1030.59 1030.60 1029.07 1030.21 1030.52 1030.68 1031.20 1031.84 1032.46 1032.86
1021.07 1022.02 1022.01 1021.62 1021.49 1021.40 1021.25 1021.40 1021.48 1022.59 1022.72 1022.80 1022.37 1022.25 1022.66 1023.27 1023.76 1023.98 1023.99 1024.54 1026.21 1026.76 1027.43 1028.74 1028.90 1029.04 1029.19 1029.32 1028.94 1029.44 1029.61 1029.94 1030.12 1030.09 1030.11 1030.19 1030.24 1028.43 1029.31 1028.99 1029.69 1030.60 1031.26 1031.92 1032.53
1021.18 1021.67 1022.37 1021.55 1021.33 1020.88 1021.27 1022.05 1023.30 1023.65 1023.39 1023.23 1022.86 1022.90 1023.22 1024.03 1024.37 1024.65 1024.98 1025.93 1026.54 1027.57 1028.48 1029.11 1029.56 1029.52 1029.37 1029.45 1029.60 1029.63 1029.91 1030.28 1030.43 1030.55 1030.54 1030.66 1030.44 1028.14 1028.54 1029.00 1029.07 1029.58 1030.66 1031.57 1032.24
1021.04 1021.60 1022.10 1021.72 1021.57 1020.65 1021.67 1023.33 1023.84 1023.49 1023.12 1023.09 1022.96 1023.53 1023.92 1024.28 1025.07 1025.37 1025.76 1026.56 1026.95 1027.15 1028.63 1029.13 1030.20 1029.86 1029.81 1029.72 1029.58 1030.16 1030.29 1030.37 1030.63 1030.98 1030.70 1030.81 1029.68 1028.27 1028.52 1028.95 1029.08 1029.27 1030.02 1031.25 1032.01
1021.29 1021.97 1021.81 1021.82 1021.70 1020.39 1022.46 1024.58 1023.25 1022.87 1022.43 1022.74 1023.16 1023.99 1024.48 1024.61 1024.92 1025.70 1026.34 1026.76 1026.92 1027.17 1028.02 1029.04 1030.28 1030.59 1030.20 1030.05 1030.43 1030.82 1031.18 1031.45 1031.57 1032.15 1031.33 1029.80 1029.02 1028.36 1028.68 1028.96 1029.27 1029.54 1030.23 1031.01 1031.75
1020.81 1021.76 1022.31 1021.83 1021.66 1021.41 1023.71 1023.81 1022.95 1022.38 1021.87 1022.15 1022.72 1023.85 1024.56 1024.72 1025.21 1025.78 1026.44 1026.88 1026.97 1027.34 1027.78 1029.01 1030.34 1031.07 1030.85 1030.52 1031.11 1031.12 1031.66 1032.25 1032.13 1031.98 1031.15 1029.75 1029.05 1028.26 1028.71 1028.98 1029.62 1029.99 1030.32 1031.07 1031.79
1020.38 1021.69 1022.29 1022.20 1022.23 1022.13 1023.71 1024.05 1023.08 1022.15 1021.05 1021.78 1022.62 1023.64 1024.36 1024.62 1025.23 1025.76 1026.44 1027.13 1026.95 1027.63 1028.10 1029.10 1029.84 1031.75 1031.36 1031.08 1031.11 1032.16 1032.12 1032.66 1032.56 1032.20 1031.18 1030.26 1028.67 1028.76 1029.09 1029.37 1029.64 1030.04 1030.52 1030.98 1031.59
1020.16 1022.05 1022.31 1022.42 1022.94 1023.52 1023.60 1023.45 1022.60 1022.05 1021.30 1021.38 1022.08 1023.16 1024.07 1024.72 1025.50 1025.84 1026.29 1026.79 1026.92 1027.26 1028.24 1029.30 1030.33 1031.67 1031.95 1031.92 1031.84 1031.99 1032.37 1032.32 1032.51 1032.70 1031.93 1031.08 1029.42 1029.30 1029.42 1029.66 1030.03 1030.43 1031.11 1031.68 1032.11
1020.46 1022.19 1022.35 1022.41 1023.43 1023.61 1023.33 1022.89 1022.45 1021.88 1021.46 1021.45 1022.01 1022.84 1023.67 1024.71 1025.71 1026.15 1026.72 1027.37 1027.26 1027.56 1027.81 1029.04 1030.37 1031.75 1032.39 1032.74 1032.62 1032.72 1033.23 1033.42 1033.27 1032.73 1031.68 1030.91 1029.47 1029.66 1029.86 1029.87 1030.40 1030.89 1031.52 1031.93 1032.28
1019.90 1022.38 1023.14 1023.10 1023.65 1022.61 1022.59 1022.74 1022.47 1021.77 1021.43 1021.28 1022.14 1023.04 1023.76 1025.15 1025.62 1026.51 1027.32 1027.79 1027.86 1027.91 1027.89 1028.45 1030.03 1030.76 1031.19 1031.21 1031.80 1032.96 1033.41 1033.89 1033.37 1032.95 1031.42 1030.12 1029.65 1030.01 1030.45 1030.52 1030.91 1031.42 1031.90 1032.43 1032.90
1018.87 1021.11 1021.22 1022.67 1023.32 1022.28 1021.85 1022.11 1022.70 1022.16 1021.49 1021.47 1022.33 1022.99 1023.53 1025.31 1026.06 1026.66 1027.53 1028.16 1028.43 1028.51 1028.61 1028.81 1030.04 1031.03 1031.68 1031.55 1031.51 1031.70 1032.31 1033.09 1032.88 1031.94 1031.11 1030.16 1029.92 1030.04 1030.62 1031.13 1031.47 1032.00 1032.60 1033.15 1033.73
1018.14 1019.81 1021.32 1021.55 1022.02 1022.06 1021.77 1021.78 1021.72 1021.77 1021.60 1021.89 1022.29 1022.99 1023.66 1024.42 1024.73 1025.90 1026.66 1027.52 1027.78 1028.86 1028.99 1029.47 1030.53 1031.02 1031.65 1031.71 1031.58 1031.28 1031.16 1031.63 1031.83 1031.45 1031.01 1030.80 1030.44 1030.57 1031.27 1031.82 1032.32 1032.78 1033.30 1033.83 1034.40
1017.41 1018.45 1018.88 1021.00 1021.90 1021.95 1021.33 1021.30 1021.40 1021.56 1022.02 1022.09 1022.29 1023.13 1024.24 1024.81 1024.91 1025.42 1026.34 1026.62 1027.11 1028.25 1029.26 1029.80 1030.55 1031.39 1031.74 1031.47 1031.20 1030.56 1029.23 1029.75 1030.01 1030.02 1029.89 1030.24 1029.93 1030.83 1031.80 1032.33 1032.79 1033.42 1033.89 1034.38 1034.92
Wind_Speed
5 8 9 10 11 12 12 10 11 12 12 12 12 14 15 16 12 6 16 8 11 19 5 6 8 6 9 9 10 3 10 14 8 4 10 8 14 18 14 19 23 8 11 4 6
5 7 9 9 11 11 13 12 11 11 12 12 10 11 13 12 3 5 3 15 19 10 4 13 15 17 9 9 8 8 8 7 7 18 17 13 19 12 10 16 15 14 10 7 7
3 7 9 10 10 11 13 13 11 13 12 13 11 12 10 4 4 6 14 26 20 7 5 6 10 14 19 13 9 7 12 19 19 21 21 22 17 6 14 14 9 12 11 10 10
3 5 8 10 11 10 12 14 12 13 13 14 11 12 7 2 5 8 21 23 17 1 4 10 9 9 11 15 8 27 18 17 18 14 12 15 11 21 17 12 12 13 13 12 13
3 4 6 9 11 11 10 14 15 12 15 15 12 12 4 8 3 10 20 15 5 9 15 21 21 9 17 21 27 26 19 18 20 20 19 20 19 18 17 13 13 13 13 14 14
6 3 5 7 10 12 9 13 15 15 14 17 11 5 8 9 5 11 14 7 13 5 2 5 19 22 19 7 9 15 27 23 18 16 10 14 7 4 8 10 13 13 13 12 14
7 5 4 6 8 11 8 11 15 16 13 17 7 5 10 1 5 11 11 6 6 12 21 9 7 10 12 23 18 21 29 11 5 5 8 4 13 11 8 9 14 12 10 11 10
8 6 7 5 8 11 8 10 14 14 14 13 2 5 5 4 4 11 11 17 16 20 21 17 17 18 8 22 12 6 4 6 5 2 5 1 5 5 5 7 11 10 8 8 8
8 6 9 8 8 11 10 8 11 10 12 12 5 6 2 9 7 6 7 7 12 12 11 9 14 19 20 19 7 4 5 8 3 3 3 1 10 12 7 6 9 7 6 6 7
6 6 8 11 9 10 11 2 9 8 5 2 4 7 6 3 5 5 5 6 10 4 7 10 8 8 7 3 4 8 10 6 4 2 5 5 6 15 9 7 7 7 5 4 5
7 7 7 11 9 10 5 5 5 7 10 3 5 5 1 5 2 7 5 3 5 12 5 7 11 10 2 4 3 10 13 10 4 3 4 1 9 13 9 8 8 8 7 6 5
8 6 7 10 8 7 2 6 3 4 6 5 3 5 1 1 6 12 5 6 6 6 1 7 7 3 2 5 11 12 15 7 4 5 3 6 11 9 8 7 8 8 7 6 3
8 7 6 8 12 2 2 5 4 5 6 4 2 5 3 5 4 8 5 3 7 8 7 8 2 2 5 6 14 5 7 5 4 6 9 9 5 11 10 8 8 8 5 5 7
8 8 7 5 5 1 3 2 4 3 6 4 4 3 4 3 6 2 3 4 7 7 6 8 5 6 9 7 2 4 2 6 11 2 2 2 3 9 15 14 11 12 10 8 9
9 9 7 3 3 4 0 2 3 5 3 2 2 2 2 6 4 6 4 8 5 3 2 1 3 6 8 2 1 4 6 7 3 5 3 4 4 3 8 15 18 15 12 9 9
11 7 5 1 0 1 2 3 5 9 5 2 1 1 5 5 4 1 5 8 4 7 12 4 2 3 3 3 5 9 7 6 3 1 2 1 4 2 6 12 14 14 14 12 11
11 7 5 2 4 3 3 4 6 4 2 3 3 3 4 3 4 4 3 4 3 6 2 3 3 2 2 8 2 4 3 3 1 2 2 2 5 7 4 6 12 17 17 13 11
10 7 3 1 4 5 4 7 3 3 4 2 5 3 5 2 3 3 3 4 2 5 4 6 3 0 3 2 5 3 2 4 4 3 1 2 7 3 2 6 8 11 17 13 12
13 2 2 3 4 5 7 3 9 7 6 7 5 3 2 2 6 4 2 4 2 3 4 5 3 2 3 2 2 5 3 3 6 2 2 3 5 6 1 2 2 10 15 15 12
5 4 2 5 5 4 7 5 2 4 6 4 5 4 4 6 4 4 5 2 4 2 2 5 7 1 1 2 8 1 7 4 2 4 4 4 5 4 2 3 4 9 15 13 10
4 5 2 5 2 7 6 6 4 5 6 5 4 5 4 6 5 5 7 1 2 4 4 4 4 0 1 4 7 3 2 5 3 1 3 2 3 2 3 6 8 11 13 12 11
5 4 2 4 6 1 5 6 3 4 0 4 5 4 5 4 4 3 7 2 5 6 6 2 5 4 1 1 2 1 2 5 4 5 1 1 4 1 7 6 7 8 6 3 3
5 3 1 3 5 3 3 1 1 3 4 4 4 3 2 5 5 3 4 2 5 4 9 8 2 4 1 1 2 3 2 3 3 2 7 4 2 3 2 5 5 6 3 2 4
6 5 4 4 2 7 8 4 2 3 3 4 5 4 5 3 4 5 3 0 1 2 8 6 4 3 6 3 5 4 4 2 2 4 6 7 2 4 5 8 7 7 10 11 10
3 4 5 7 4 6 10 13 13 6 1 3 3 4 7 5 2 4 3 3 2 5 3 3 4 4 1 1 3 4 5 11 8 3 7 3 7 3 8 5 6 10 10 10 9
7 7 2 4 8 9 11 8 20 5 6 4 4 6 4 8 9 10 8 5 5 2 2 1 4 3 2 2 2 4 7 11 13 7 11 4 6 5 2 9 10 10 10 9 8
1 2 7 7 8 7 9 9 12 5 1 2 7 7 4 1 4 6 5 7 7 7 4 4 7 3 2 1 1 8 12 15 8 6 7 10 4 11 8 9 10 9 8 9 8
Wind_Direction
348 351 6 6 360 360 343 360 358 340 338 330 336 338 340 337 327 354 36 315 297 310 333 299 16 36 55 57 49 80 97 102 116 99 110 113 96 71 90 79 65 69 81 82 33
340 351 356 5 356 5 346 344 349 341 328 321 333 334 338 338 24 359 353 336 339 352 64 81 56 47 53 32 41 55 82 55 110 116 114 97 87 93 95 84 78 85 96 87 54
341 345 351 356 353 6 348 334 348 336 329 317 331 331 336 337 33 320 339 338 342 349 83 85 85 63 62 49 26 50 94 104 95 107 108 99 89 104 98 70 88 111 101 84 66
324 344 347 352 349 358 356 331 337 333 324 311 332 334 326 36 65 300 335 330 338 81 76 58 39 62 71 67 63 104 88 107 113 108 104 87 97 78 80 92 99 94 95 91 76
292 333 347 348 345 340 10 332 325 330 323 311 340 343 59 46 350 299 324 336 10 68 93 100 82 82 89 95 86 87 97 91 96 94 92 100 84 94 89 100 101 97 89 82 76
280 307 336 347 344 327 12 337 322 322 327 308 346 9 71 65 298 314 326 6 31 43 95 78 108 107 84 63 50 118 105 104 99 104 105 96 83 97 103 112 101 95 85 79 71
271 291 319 338 337 316 359 338 321 318 321 304 5 74 64 46 338 317 356 46 27 82 94 76 115 94 118 91 105 109 106 102 81 111 119 69 57 93 128 135 112 108 107 97 85
260 283 297 319 324 312 336 344 319 314 314 298 16 71 84 290 313 14 349 53 60 75 89 78 82 92 91 120 115 85 66 112 192 348 35 248 146 146 138 145 118 112 102 94 81
255 277 295 304 324 310 319 348 311 313 303 286 37 84 49 325 19 334 16 70 80 71 68 66 74 92 121 126 116 51 106 117 164 25 129 17 146 185 178 172 131 129 122 117 111
235 269 292 302 324 312 306 66 305 342 333 322 76 62 1 327 310 339 343 28 76 62 45 41 67 104 121 330 156 147 127 147 133 33 57 86 143 167 180 178 164 156 160 154 136
201 255 288 299 319 322 2 35 14 4 30 39 132 109 342 299 357 355 359 14 38 55 67 30 104 117 21 358 78 108 119 108 85 61 98 299 159 177 175 182 188 188 181 178 164
205 235 275 298 305 305 43 90 87 147 78 354 81 83 53 6 48 351 34 66 49 80 98 59 80 351 45 87 95 105 115 91 101 15 108 157 173 191 204 212 209 208 188 185 176
212 235 257 294 288 337 67 94 120 154 90 349 1 74 334 66 70 344 27 93 70 64 47 95 56 74 127 100 106 47 123 155 127 103 75 133 193 214 219 221 218 230 223 211 209
195 242 250 312 289 263 67 26 115 126 82 316 346 9 14 93 56 328 22 107 43 108 83 72 351 92 92 83 38 87 84 113 123 99 84 347 308 210 205 209 217 209 205 207 200
181 235 253 160 156 119 35 329 121 57 77 255 359 294 32 76 138 24 7 38 88 77 183 69 45 80 71 5 6 128 131 116 106 98 169 180 272 133 199 216 216 208 206 202 205
173 221 229 273 213 95 4 1 44 45 242 143 45 68 73 28 38 24 51 45 138 66 50 91 85 52 114 72 93 140 100 63 67 37 321 57 223 228 182 232 215 205 200 196 201
169 185 238 311 174 102 78 49 48 142 305 174 138 113 82 68 62 36 45 56 130 105 58 29 17 11 48 99 70 96 109 38 21 18 267 1 205 280 236 235 223 202 192 192 196
158 140 296 344 293 122 58 54 142 217 184 140 108 97 110 135 35 56 72 121 80 89 119 149 195 43 4 65 154 106 158 153 197 202 349 103 238 243 260 296 249 209 184 181 195
139 96 39 321 302 76 79 108 208 204 160 138 94 94 112 106 120 99 47 183 182 154 121 137 90 326 54 103 316 156 180 98 106 54 248 209 259 263 304 31 159 170 172 183 197
135 106 320 326 331 73 87 232 252 212 120 113 123 144 165 159 114 151 180 202 151 106 126 175 112 318 154 111 52 269 132 130 41 174 239 222 263 249 287 212 178 181 182 188 200
81 99 247 347 256 54 149 230 241 251 134 131 137 132 172 153 143 165 173 195 156 111 75 131 100 176 228 205 166 145 166 65 105 199 210 274 226 200 279 256 207 193 188 191 206
104 112 304 360 80 87 140 181 242 194 197 120 111 109 150 156 131 142 173 186 169 153 137 133 116 132 261 33 43 121 216 171 154 188 188 350 271 331 278 258 208 192 196 214 262
96 104 292 98 136 157 141 104 273 183 186 149 127 148 125 141 127 122 135 330 164 149 153 175 118 108 142 217 2 217 125 87 92 83 191 168 222 0 24 121 161 170 136 101 81
109 103 344 52 301 143 136 138 265 261 191 114 112 88 107 100 30 137 124 178 349 104 119 107 113 174 192 163 129 175 184 197 141 167 166 226 161 187 126 104 115 111 114 105 93
84 179 178 165 226 159 157 158 198 217 212 147 103 187 148 122 88 123 125 131 39 145 63 125 127 117 191 173 159 168 165 186 201 191 206 141 200 184 180 149 132 125 117 107 90
124 132 77 162 134 146 168 187 187 167 148 203 172 159 152 153 187 185 142 186 186 156 134 43 139 142 125 164 231 251 202 202 217 237 256 242 247 190 147 131 137 130 122 103 85
134 92 113 150 169 161 187 164 186 149 153 210 167 122 148 187 92 83 73 96 125 136 127 125 137 142 186 56 290 280 219 194 189 193 206 217 231 156 154 150 138 129 117 107 90